{"data":{"norad_id":60018,"epoch":"2026-05-25T04:33:48.466656Z","epoch_age_seconds":51810,"freshness":"FRESH","line1":"1 60018U 24111C   26145.19014429  .00007629  00000+0  26940-3 0  9999","line2":"2 60018  53.1582  80.4577 0001176 112.4092 247.7034 15.30203418110596","mean_motion":15.30203418,"eccentricity":0.0001176,"inclination_deg":53.1582,"raan_deg":80.4577,"arg_perigee_deg":112.4092,"mean_anomaly_deg":247.7034,"bstar":0.0002694,"rev_number":11059,"period_min":94.105135504278,"perigee_km":474.39891090322,"apogee_km":476.01081690961,"semimajor_km":6853.3418639064,"source":"CELESTRAK","updated_at":"2026-05-25T13:38:19.131265Z"}}